Regional Weather Roundup
Issued by NWS

Home | Current Version | Previous Version | Graphics & Text | Print | Product List | Glossary On
Versions: 1 2 3 4 5 6 7 8 9 10 11 12 13 14 15 16 17 18 19 20 21 22 23 24 25 26 27 28 29 30 31 32 33 34 35 36 37 38 39 40 41 42 43 44 45 46 47 48 49 50
000
ASUS43 KLMK 290802
RWRKY
KENTUCKY REGIONAL WEATHER ROUNDUP
NATIONAL WEATHER SERVICE LOUISVILLE KY
400 AM EDT THU SEP 29 2016

NOTE "FAIR" INDICATES FEW OR NO CLOUDS BELOW 12,000 FEET
WITH NO SIGNIFICANT WEATHER AND/OR OBSTRUCTIONS TO VISIBILITY.

KYZ001>023-026-027-061>063-070>075-290900-
WESTERN AND SOUTH CENTRAL KENTUCKY

CITY           SKY/WX    TMP DP  RH WIND       PRES   REMARKS
PADUCAH        CLEAR     50  46  86 W6        30.07R
HENDERSON      PTCLDY    50  45  81 W5        30.03S
OWENSBORO      NOT AVBL
HOPKINSVILLE   NOT AVBL
BOWLING GREEN  CLEAR     51  46  83 W3        30.03S
GLASGOW        NOT AVBL
$$

KYZ024-025-028>034-038-045-046-053-290900-
NORTH CENTRAL KENTUCKY

CITY           SKY/WX    TMP DP  RH WIND       PRES   REMARKS
LOUISVILLE/SDF MOCLDY    54  49  83 W6        29.99S
LOUISVILLE/LOU CLOUDY    55  49  80 W3        29.99F
FORT KNOX      NOT AVBL
$$

KYZ035>037-039>044-047>052-055>060-089>105-290900-
NORTHEAST KENTUCKY

CITY           SKY/WX    TMP DP  RH WIND       PRES   REMARKS
LEXINGTON      FOG       48  47  96 S3        29.99R VSB 1
COVINGTON      CLOUDY    52  52 100 CALM      29.97R FOG
FRANKFORT      CLEAR     52  48  86 CALM      29.97S
$$

KYZ054-064>069-076>088-106>120-290900-
SOUTHEAST KENTUCKY

CITY           SKY/WX    TMP DP  RH WIND       PRES   REMARKS
JACKSON        CLOUDY    57  55  93 CALM      29.98S FOG
LONDON         CLEAR     53  50  89 W5        29.99S
SOMERSET       MOCLDY    52  52 100 CALM      30.02R
MIDDLESBORO    CLOUDY    58  58  99 CALM      29.98F
MONTICELLO     FOG       55  54  96 NE6       30.02S VSB 1/4
$$




USA.gov is the U.S. government's official web portal to all federal, state and local government web resources and services.